Location: Unspecified
(0.0000°N, 0.0000°E)
Time: 08:08:38
(UTC+00:00)

P76-5 - Visible Passes

Search period start: 26 May 2024 00:00
Search period end: 05 June 2024 00:00
Orbit: 975 x 1038 km, 99.9° (Epoch: 25 May)

Date Brightness Start Highest point End Pass type
(mag) Time Alt. Az. Time Alt. Az. Time Alt. Az.
26 May 8.0 04:57:37 10° SE 05:03:33 42° ENE 05:09:22 10° N visible
27 May 6.7 05:31:03 10° SSE 05:37:24 88° WSW 05:43:40 10° NNW visible
27 May 9.5 18:41:54 10° NW 18:45:45 17° WNW 18:49:39 10° WSW visible
28 May 9.4 04:23:46 10° ESE 04:27:48 18° ENE 04:31:46 10° NE visible
29 May 8.1 04:55:48 10° SE 05:01:39 40° ENE 05:07:23 10° N visible
30 May 6.7 05:29:10 10° SSE 05:35:31 87° ENE 05:41:45 10° NNW visible
30 May 9.5 18:39:46 10° NW 18:43:51 19° WNW 18:48:00 10° WSW visible
31 May 9.4 04:22:07 10° ESE 04:25:54 17° ENE 04:29:37 10° NE visible
01 Jun 8.2 04:53:59 10° SE 04:59:45 37° ENE 05:05:23 10° N visible
02 Jun 6.8 05:27:17 10° SSE 05:33:37 83° ENE 05:39:49 10° NNW visible
02 Jun 9.4 18:37:38 10° NNW 18:41:56 20° WNW 18:46:18 10° WSW visible
03 Jun 9.5 04:20:30 10° ESE 04:23:59 15° ENE 04:27:26 10° NE visible
04 Jun 8.3 04:52:12 10° SE 04:57:50 35° ENE 05:03:22 10° NNE visible
